[[{"header":{"parameterUnit":"m.s-1","parameterCategory":1,"la1":30.2991,"la2":30.254,"lo1":-89.0895,"lo2":-89.0444,"dy":0.0017,"dx":0.0017,"nx":28,"ny":28,"refTime":"2024-02-27T09:00:00:Z","depth":0,"parameterNumber":2,"parameterNumberName":"U-component_of_WINDS"},"data":[0,0,0,0,0,0,0,0,0,0,0,0,0,0,0,0,0,0,0,0,0,0,0,0,0,0,0,0,0,0,0,0,0,0,0,0,0,0,0,0,0,0,0,0,0,0,0,0,0,0,0,0,0,0,0,0,0,0,2.1007,2.1008,0,2.107,2.1071,2.1072,2.1061,2.106,2.1059,2.1058,2.1125,2.1128,2.1131,0,0,0,0,0,0,0,0,0,0,0,0,0,2.0879,2.0881,2.1007,2.1008,2.1008,2.107,2.1071,2.1072,2.1061,2.106,2.1058,2.1057,2.1124,2.1128,2.1131,0,0,0,0,0,0,0,0,0,0,0,0,0,2.0938,2.0882,2.1007,2.101,2.1011,2.107,2.1071,2.1072,2.1061,2.106,2.1058,2.1056,2.1123,2.1127,2.1132,2.1192,0,0,2.1145,2.1147,0,0,0,0,0,0,0,0,2.0934,2.0942,2.1009,2.101,2.1011,2.1056,2.1051,2.1112,2.1062,2.1042,2.1058,2.1056,2.1104,2.111,2.1125,2.1195,2.1198,2.1145,2.1148,2.115,2.1151,0,0,0,0,0,0,0,2.093,2.094,2.1032,2.101,2.1012,2.101,2.1016,2.1063,2.1082,2.1044,2.1043,2.1051,2.1104,2.1121,2.1127,2.1199,2.1145,2.1149,2.1151,2.1153,2.1322,2.1324,0,0,0,0,0,0,2.0925,2.0936,2.103,2.1034,2.0968,2.1013,2.1021,2.1043,2.1081,2.1085,2.1052,2.105,2.1115,2.1122,2.1129,2.1202,2.115,2.1154,2.1156,2.132,2.1322,2.1324,0,0,0,0,0,0,2.0922,2.0933,2.1027,2.0985,2.0997,2.1017,2.1043,2.1046,2.1062,2.1087,2.1091,2.1066,2.1114,2.1123,2.1176,2.1204,2.1155,2.1159,2.1318,2.1321,2.1323,2.1349,0,0,0,0,0,0,2.0918,2.0932,2.0955,2.0986,2.0999,2.1073,2.1045,2.1048,2.107,2.1067,2.1101,2.1105,2.1113,2.117,2.118,2.1209,2.1163,2.1315,2.1319,2.1322,2.1345,2.1352,2.1358,0,0,0,0,0,2.0914,2.096,2.0956,2.0967,2.1027,2.1074,2.1082,2.1089,2.1072,2.1095,2.1111,2.1104,2.12,2.1175,2.1187,2.1218,2.1313,2.1318,2.1322,2.1342,2.1351,2.1357,0,0,0,0,0,0,2.0932,2.0964,2.096,2.1017,2.1043,2.1072,2.1101,2.1098,2.113,2.1126,2.1135,2.1143,2.1197,2.1213,2.1185,2.1278,2.1254,2.1261,2.1266,2.1274,2.128,2.1275,2.1166,0,0,0,0,0,2.0942,2.0977,2.1003,2.1051,2.1064,2.1081,2.1101,2.1105,2.1132,2.1144,2.1164,2.1192,2.1228,2.1252,2.1287,2.1348,2.1355,2.1375,2.1381,2.1386,2.1392,2.1426,2.1435,2.1338,2.1338,2.1338,0,0,2.0964,2.0986,2.1008,2.1055,2.1076,2.1112,2.109,2.1129,2.1157,2.115,2.1201,2.1217,2.1249,2.1306,2.1333,2.1321,2.142,2.1391,2.1395,2.1398,2.1431,2.144,2.1448,2.1341,2.1341,2.134,0,0,2.1023,2.1043,2.1085,2.1106,2.1138,2.1148,2.1159,2.1189,2.1199,2.125,2.1246,2.128,2.1342,2.1365,2.1385,2.1454,2.1449,2.1465,2.1497,2.153,2.1538,2.1545,2.1569,2.1578,2.1471,2.1471,2.1471,0,2.1047,2.1101,2.1107,2.1147,2.1169,2.1164,2.1207,2.1227,2.1269,2.1284,2.1271,2.1349,2.1371,2.1434,2.145,2.1467,2.1479,2.1461,2.1536,2.1543,2.1549,2.1573,2.1582,2.1472,2.1472,2.1472,2.1472,0,2.1129,2.1166,2.1197,2.1236,2.1261,2.1303,2.1316,2.1341,2.1343,2.1355,2.1408,2.1434,2.1474,2.1489,2.1491,2.1553,2.1545,2.1534,2.151,2.156,2.1583,2.1592,2.1475,2.1474,2.1474,2.1473,0,0,2.1199,2.1243,2.1254,2.1272,2.1307,2.1336,2.1378,2.1417,2.1438,2.1467,2.1503,2.1556,2.1546,2.1569,2.1574,2.1603,2.1657,2.1589,2.159,2.1601,2.1727,2.1735,2.1745,2.1654,2.1656,2.1657,2.1724,0,2.1261,2.1334,2.1342,2.1407,2.1443,2.1439,2.1476,2.1502,2.1515,2.1548,2.1563,2.16,2.1584,2.1598,2.1627,2.1644,2.1682,2.1639,2.1688,2.169,2.168,2.1757,2.1765,2.1827,2.1733,2.1735,2.1736,0,2.1343,2.1374,2.1443,2.1474,2.1489,2.1521,2.1558,2.1589,2.1619,2.1626,2.1652,2.1653,2.1698,2.1672,2.1734,2.1705,2.1726,2.1737,2.174,2.1745,2.1715,2.1764,2.1847,2.1856,2.175,2.1748,2.1747,0,2.1388,2.1447,2.1496,2.1512,2.1549,2.1572,2.1588,2.1617,2.164,2.1672,2.1687,2.1724,2.1745,2.1774,2.1786,2.1767,2.1848,2.1823,2.1856,2.1856,2.1873,2.1872,2.1961,2.1887,2.1887,2.1886,2.1886,0,2.1456,2.1498,2.1517,2.1547,2.1594,2.1603,2.1651,2.1667,2.1692,2.1726,2.1726,2.1758,2.1771,2.1806,2.1816,2.1866,2.1875,2.1883,2.1886,2.1883,2.1882,2.1897,2.1893,2.1889,2.1888,2.1888,2.1887,0,2.1513,2.1527,2.1581,2.1611,2.162,2.1654,2.1681,2.1711,2.1724,2.1767,2.1777,2.1799,2.1839,2.1854,2.1904,2.1911,2.1969,2.1968,2.1959,2.1959,2.1991,2.1988,2.2092,2.2107,2.2023,2.2024,2.2025,0,2.1556,2.1588,2.1622,2.1645,2.1662,2.1698,2.1722,2.1732,2.1757,2.1794,2.182,2.186,2.1893,2.1959,2.1979,2.2018,2.2017,2.2051,2.2023,2.202,2.2018,2.2016,2.2019,2.2056,2.2057,2.2058,2.2059,0,2.1629,2.1635,2.1668,2.1704,2.1732,2.1761,2.179,2.1808,2.1824,2.1852,2.1893,2.1918,2.1969,2.201,2.205,2.2068,2.2066,2.2067,2.2077,2.2075,2.2068,2.2072,2.1973,2.2065,2.2064,2.2064,2.2063,2.2063,2.168,2.1709,2.1738,2.1775,2.1798,2.1825,2.1854,2.1871,2.1906,2.1947,2.1952,2.1997,2.2028,2.208,2.2101,2.2137,2.2127,2.2141,2.2145,2.2148,2.215,2.2063,2.2144,2.2144,2.2144,2.2144,2.2143,0,2.1754,2.1772,2.1807,2.1846,2.1876,2.1872,2.1903,2.1929,2.1968,2.1996,2.2028,2.2076,2.2116,2.214,2.218,2.2204,2.2205,2.2214,2.2213,2.2217,2.2156,2.2144,2.2214,2.2214,2.2214,2.2214,2.2214,2.2214,2.1795,2.1844,2.1853,2.1914,2.1932,2.1975,2.1994,2.2019,2.2042,2.2095,2.2128,2.2143,2.217,2.2212,2.2249,2.2255,2.227,2.228,2.2286,2.2229,2.2221,2.2214,2.2203,2.2284,2.2284,2.2344,2.2344,2.2344]},{"header":{"parameterUnit":"m.s-1","parameterCategory":1,"la1":30.2991,"la2":30.254,"lo1":-89.0895,"lo2":-89.0444,"dy":0.0017,"dx":0.0017,"nx":28,"ny":28,"refTime":"2024-02-27T09:00:00:Z","depth":0,"parameterNumber":3,"parameterNumberName":"V-component_of_WINDS"},"data":[0,0,0,0,0,0,0,0,0,0,0,0,0,0,0,0,0,0,0,0,0,0,0,0,0,0,0,0,0,0,0,0,0,0,0,0,0,0,0,0,0,0,0,0,0,0,0,0,0,0,0,0,0,0,0,0,0,0,5.2505,5.2506,0,5.2598,5.2599,5.26,5.2594,5.2593,5.2592,5.259,5.2682,5.2686,5.2689,0,0,0,0,0,0,0,0,0,0,0,0,0,5.2322,5.2326,5.2505,5.2507,5.2508,5.2598,5.2599,5.26,5.2594,5.2593,5.2591,5.259,5.2681,5.2685,5.269,0,0,0,0,0,0,0,0,0,0,0,0,0,5.2407,5.2327,5.2505,5.2516,5.2518,5.2597,5.2599,5.2601,5.2595,5.2593,5.2591,5.2589,5.2679,5.2685,5.269,5.2765,0,0,5.2707,5.2709,0,0,0,0,0,0,0,0,5.2402,5.2414,5.2513,5.2515,5.2517,5.2583,5.2568,5.2655,5.2595,5.2565,5.259,5.2588,5.265,5.2658,5.268,5.2769,5.2773,5.2708,5.2711,5.2713,5.2715,0,0,0,0,0,0,0,5.2396,5.241,5.2542,5.2514,5.2517,5.2515,5.2525,5.2585,5.2618,5.2568,5.2568,5.2579,5.2651,5.2674,5.2682,5.2774,5.2707,5.2712,5.2716,5.2718,5.2931,5.2934,0,0,0,0,0,0,5.2388,5.2405,5.2539,5.2545,5.2454,5.252,5.2531,5.2564,5.2617,5.2624,5.258,5.2578,5.2666,5.2675,5.2685,5.2778,5.2713,5.2718,5.2722,5.2929,5.2932,5.2934,0,0,0,0,0,0,5.2384,5.24,5.2535,5.2475,5.2492,5.2526,5.2562,5.2566,5.259,5.2627,5.2632,5.2598,5.2665,5.2677,5.2746,5.2781,5.2721,5.2726,5.2926,5.293,5.2933,5.2963,0,0,0,0,0,0,5.2379,5.2399,5.2428,5.2475,5.2495,5.2595,5.2564,5.257,5.26,5.2598,5.2645,5.2651,5.2664,5.2737,5.2751,5.2787,5.273,5.2923,5.2928,5.2932,5.2959,5.2967,5.2974,0,0,0,0,0,5.2373,5.2431,5.2429,5.2446,5.2532,5.2597,5.2608,5.2623,5.2603,5.2632,5.2656,5.2649,5.2774,5.2744,5.276,5.2798,5.2921,5.2927,5.2932,5.2955,5.2965,5.2973,0,0,0,0,0,0,5.2385,5.2438,5.2436,5.2512,5.255,5.2596,5.2633,5.2632,5.2676,5.2672,5.2688,5.2698,5.2768,5.2789,5.2755,5.2874,5.2845,5.2854,5.2858,5.2868,5.2875,5.2869,5.2735,0,0,0,0,0,5.2397,5.2446,5.2489,5.2552,5.2571,5.2599,5.2628,5.2636,5.2676,5.2691,5.272,5.2759,5.2807,5.2838,5.2884,5.2961,5.2973,5.2996,5.3003,5.3009,5.3017,5.3062,5.3073,5.2952,5.2952,5.2952,0,0,5.2422,5.2456,5.2486,5.2555,5.2586,5.2636,5.2612,5.2666,5.2704,5.2699,5.2767,5.2789,5.2833,5.2907,5.2941,5.2927,5.3053,5.3016,5.302,5.3025,5.3068,5.308,5.309,5.2955,5.2955,5.2954,0,0,5.2493,5.2523,5.258,5.2612,5.2659,5.2678,5.2691,5.2738,5.2753,5.2821,5.282,5.2864,5.2946,5.2978,5.3005,5.309,5.3087,5.3105,5.3144,5.3188,5.3197,5.3206,5.3239,5.325,5.3112,5.3112,5.3112,0,5.2517,5.2594,5.2609,5.2665,5.2696,5.2695,5.2754,5.2783,5.2842,5.2864,5.2848,5.2953,5.2981,5.3064,5.3085,5.3106,5.3123,5.31,5.3195,5.3204,5.3212,5.3243,5.3255,5.3114,5.3114,5.3114,5.3113,0,5.2623,5.2676,5.2716,5.2776,5.2811,5.2867,5.2891,5.2925,5.293,5.2951,5.3021,5.3056,5.311,5.313,5.3135,5.3214,5.3205,5.3191,5.3163,5.3225,5.3255,5.3267,5.3117,5.3116,5.3116,5.3115,0,0,5.2704,5.2773,5.2788,5.2816,5.2869,5.291,5.2967,5.3021,5.3051,5.3092,5.3141,5.3211,5.32,5.3231,5.3239,5.3277,5.3346,5.326,5.3261,5.3276,5.3438,5.3449,5.3462,5.3343,5.3345,5.3347,5.3435,0,5.2782,5.2884,5.2901,5.299,5.3041,5.3042,5.3091,5.3129,5.3149,5.3195,5.3216,5.3267,5.3248,5.3267,5.3304,5.3329,5.3378,5.3323,5.3389,5.3391,5.338,5.3477,5.3489,5.357,5.3446,5.3448,5.3449,0,5.2887,5.2934,5.3029,5.3077,5.3099,5.3143,5.3196,5.3239,5.3282,5.3294,5.333,5.3334,5.3393,5.3361,5.3444,5.3406,5.3433,5.345,5.3453,5.3462,5.3425,5.349,5.3596,5.3609,5.3467,5.3466,5.3465,0,5.294,5.3026,5.3095,5.3118,5.3176,5.3208,5.3233,5.3274,5.3307,5.3352,5.3374,5.3425,5.3453,5.3492,5.3511,5.3485,5.3593,5.3562,5.3606,5.3605,5.3629,5.3628,5.3743,5.3644,5.3644,5.3644,5.3643,0,5.3027,5.3086,5.312,5.3162,5.3228,5.3246,5.3311,5.3335,5.3372,5.342,5.3422,5.3466,5.3487,5.3534,5.3549,5.3616,5.3628,5.364,5.3644,5.3642,5.364,5.3661,5.3657,5.3647,5.3646,5.3646,5.3645,0,5.3098,5.3123,5.3198,5.3247,5.3261,5.3308,5.335,5.3391,5.3412,5.3471,5.3486,5.3519,5.3575,5.3597,5.3665,5.3674,5.3753,5.3751,5.3739,5.3741,5.3784,5.3781,5.3919,5.3939,5.3824,5.3825,5.3826,0,5.3153,5.3198,5.3253,5.3286,5.3313,5.3365,5.3399,5.3418,5.3453,5.3507,5.3542,5.3599,5.3645,5.3735,5.3764,5.3816,5.3817,5.3861,5.3825,5.3822,5.382,5.3818,5.3824,5.3869,5.387,5.3871,5.3872,0,5.3248,5.3259,5.3308,5.3363,5.3404,5.3447,5.349,5.3516,5.3542,5.3581,5.364,5.3676,5.3746,5.3803,5.3857,5.3883,5.3883,5.3883,5.3896,5.3895,5.3888,5.3895,5.376,5.388,5.3879,5.3878,5.3878,5.3878,5.3314,5.3356,5.3402,5.3457,5.3491,5.3531,5.3574,5.36,5.365,5.371,5.3718,5.3781,5.3825,5.3898,5.3926,5.3976,5.3964,5.3983,5.3988,5.3993,5.3997,5.3878,5.3985,5.3985,5.3985,5.3985,5.3985,0,5.3411,5.3441,5.3492,5.3553,5.3597,5.3593,5.364,5.3678,5.3734,5.3775,5.3821,5.3889,5.3944,5.3979,5.4034,5.4068,5.4069,5.4082,5.408,5.4087,5.4003,5.3987,5.408,5.408,5.408,5.408,5.408,5.408,5.3467,5.3539,5.3555,5.3644,5.3673,5.3736,5.3764,5.3801,5.3834,5.3911,5.3958,5.398,5.4019,5.4077,5.4128,5.4137,5.4158,5.4173,5.4181,5.4102,5.4092,5.4083,5.4068,5.4176,5.4177,5.426,5.4261,5.4262]}]]